LOT2MT EPWA-EDDM

Flight info

Callsign LOT2MT
Flight time 1h 14m
Altitude 34000
Route DCT SOXER DCT VAMPU DCT BAXIS N869 UVIVI DCT LAGAR DCT IPRUX DCT NIRGO T108 LANDU DCT
Aircraft B38M/M-SDE1FGHILORVWXY/HB1

Departure

Time 2026-05-05 10:06
Airport Warsaw Chopin Airport (EPWA)

Arrival

Time 2026-05-05 11:20
Airport Munich Airport (EDDM)
Time Latitude Longitude Altitude Speed Heading
2026-05-05 09:23 52.17340 20.96544 341 ft 0 kts 207°
2026-05-05 09:58 52.17338 20.96542 341 ft 2 kts 207°
2026-05-05 09:58 52.17317 20.96525 339 ft 5 kts 207°
2026-05-05 09:59 52.17269 20.96507 339 ft 9 kts 166°
2026-05-05 09:59 52.17207 20.96558 336 ft 11 kts 151°
2026-05-05 09:59 52.17130 20.96625 340 ft 14 kts 152°
2026-05-05 09:59 52.17040 20.96703 340 ft 16 kts 152°
2026-05-05 10:00 52.16937 20.96793 340 ft 16 kts 152°
2026-05-05 10:00 52.16831 20.96885 341 ft 18 kts 152°
2026-05-05 10:00 52.16723 20.96979 341 ft 15 kts 152°
2026-05-05 10:00 52.16660 20.97069 339 ft 12 kts 115°
2026-05-05 10:01 52.16621 20.97206 341 ft 14 kts 114°
2026-05-05 10:01 52.16587 20.97326 337 ft 13 kts 114°
2026-05-05 10:01 52.16549 20.97461 340 ft 13 kts 115°
2026-05-05 10:01 52.16512 20.97593 340 ft 13 kts 114°
2026-05-05 10:02 52.16476 20.97720 341 ft 9 kts 115°
2026-05-05 10:02 52.16456 20.97781 337 ft 9 kts 130°
2026-05-05 10:02 52.16401 20.97793 341 ft 7 kts 201°
2026-05-05 10:02 52.16388 20.97784 341 ft 0 kts 204°
2026-05-05 10:04 52.16386 20.97782 353 ft 1 kts 204°
2026-05-05 10:05 52.16353 20.97758 338 ft 9 kts 204°
2026-05-05 10:05 52.16311 20.97685 341 ft 11 kts 263°
2026-05-05 10:05 52.16337 20.97559 338 ft 14 kts 295°
2026-05-05 10:05 52.16415 20.97281 338 ft 58 kts 294°
2026-05-05 10:06 52.16688 20.96309 347 ft 128 kts 295°
2026-05-05 10:06 52.17136 20.94721 491 ft 168 kts 294°
2026-05-05 10:06 52.17652 20.92934 1113 ft 177 kts 293°
2026-05-05 10:06 52.18149 20.91104 1912 ft 181 kts 289°
2026-05-05 10:07 52.18480 20.89017 2361 ft 202 kts 272°
2026-05-05 10:07 52.18357 20.86628 2891 ft 222 kts 257°
2026-05-05 10:07 52.18079 20.84024 3484 ft 246 kts 265°
2026-05-05 10:07 52.18318 20.81125 4098 ft 265 kts 282°
2026-05-05 10:08 52.18724 20.78201 5133 ft 267 kts 279°
2026-05-05 10:08 52.19117 20.75249 6138 ft 267 kts 279°
2026-05-05 10:08 52.19510 20.72306 7065 ft 269 kts 277°
2026-05-05 10:08 52.19429 20.69302 7972 ft 265 kts 251°
2026-05-05 10:09 52.18831 20.66442 8840 ft 269 kts 249°
2026-05-05 10:09 52.18219 20.63535 9736 ft 272 kts 249°
2026-05-05 10:09 52.17580 20.60558 10309 ft 287 kts 249°
2026-05-05 10:09 52.16894 20.57410 10791 ft 301 kts 249°
2026-05-05 10:10 52.16182 20.54172 11532 ft 305 kts 249°
2026-05-05 10:10 52.15462 20.50915 12409 ft 307 kts 249°
2026-05-05 10:10 52.14823 20.47573 13255 ft 310 kts 251°
2026-05-05 10:10 52.14190 20.44208 14070 ft 312 kts 251°
2026-05-05 10:11 52.13552 20.40846 14761 ft 317 kts 251°
2026-05-05 10:11 52.12891 20.37387 15465 ft 321 kts 251°
2026-05-05 10:11 52.12220 20.33884 16150 ft 326 kts 251°
2026-05-05 10:11 52.11528 20.30350 16821 ft 330 kts 250°
2026-05-05 10:12 52.10790 20.26793 17495 ft 334 kts 251°
2026-05-05 10:12 52.10044 20.23180 18138 ft 338 kts 251°
2026-05-05 10:12 52.09290 20.19532 18691 ft 342 kts 251°
2026-05-05 10:12 52.08527 20.15836 19263 ft 345 kts 251°
2026-05-05 10:13 52.07757 20.12116 19819 ft 348 kts 251°
2026-05-05 10:13 52.06980 20.08373 20352 ft 352 kts 251°
2026-05-05 10:13 52.06194 20.04588 20905 ft 355 kts 251°
2026-05-05 10:13 52.05399 20.00771 21464 ft 358 kts 251°
2026-05-05 10:14 52.04597 19.96925 22017 ft 361 kts 250°
2026-05-05 10:14 52.03786 19.93043 22561 ft 364 kts 250°
2026-05-05 10:14 52.02966 19.89128 23119 ft 368 kts 250°
2026-05-05 10:14 52.02148 19.85229 23622 ft 371 kts 250°
2026-05-05 10:15 52.01311 19.81247 24115 ft 374 kts 250°
2026-05-05 10:15 52.00468 19.77242 24610 ft 376 kts 250°
2026-05-05 10:15 51.99616 19.73208 25102 ft 379 kts 250°
2026-05-05 10:15 51.98757 19.69146 25593 ft 381 kts 250°
2026-05-05 10:16 51.97893 19.65068 26086 ft 384 kts 250°
2026-05-05 10:16 51.97022 19.60967 26567 ft 386 kts 250°
2026-05-05 10:16 51.96143 19.56836 27035 ft 388 kts 250°
2026-05-05 10:16 51.95258 19.52685 27488 ft 391 kts 250°
2026-05-05 10:17 51.94364 19.48501 27947 ft 393 kts 250°
2026-05-05 10:17 51.93463 19.44292 28383 ft 396 kts 250°
2026-05-05 10:17 51.92568 19.40120 28822 ft 398 kts 250°
2026-05-05 10:17 51.91653 19.35861 29254 ft 401 kts 250°
2026-05-05 10:18 51.90731 19.31581 29660 ft 403 kts 250°
2026-05-05 10:18 51.89805 19.27290 30037 ft 405 kts 250°
2026-05-05 10:18 51.88870 19.22970 30364 ft 407 kts 250°
2026-05-05 10:18 51.87930 19.18636 30707 ft 409 kts 250°
2026-05-05 10:19 51.86987 19.14290 31052 ft 410 kts 250°
2026-05-05 10:19 51.86041 19.09945 31486 ft 408 kts 250°
2026-05-05 10:19 51.85098 19.05625 31933 ft 407 kts 250°
2026-05-05 10:19 51.84157 19.01320 32393 ft 405 kts 250°
2026-05-05 10:20 51.83218 18.97034 32842 ft 403 kts 250°
2026-05-05 10:20 51.82293 18.92819 33302 ft 402 kts 250°
2026-05-05 10:20 51.81360 18.88578 33754 ft 401 kts 249°
2026-05-05 10:20 51.80422 18.84322 33872 ft 401 kts 249°
2026-05-05 10:21 51.78558 18.75892 33850 ft 398 kts 249°
2026-05-05 10:21 51.76689 18.67473 33848 ft 398 kts 249°
2026-05-05 10:22 51.74817 18.59074 33844 ft 398 kts 249°
2026-05-05 10:22 51.72948 18.50720 33844 ft 398 kts 249°
2026-05-05 10:23 51.71063 18.42329 33845 ft 398 kts 249°
2026-05-05 10:23 51.69171 18.33940 33845 ft 398 kts 249°
2026-05-05 10:24 51.67272 18.25556 33848 ft 398 kts 249°
2026-05-05 10:24 51.65369 18.17185 33842 ft 398 kts 249°
2026-05-05 10:25 51.63457 18.08809 33842 ft 398 kts 249°
2026-05-05 10:25 51.61538 18.00440 33839 ft 398 kts 249°
2026-05-05 10:26 51.59615 17.92079 33839 ft 398 kts 249°
2026-05-05 10:26 51.57351 17.83981 33842 ft 397 kts 243°
2026-05-05 10:27 51.54940 17.76050 33835 ft 397 kts 244°
2026-05-05 10:27 51.52535 17.68061 33839 ft 397 kts 244°
2026-05-05 10:28 51.50125 17.60064 33837 ft 397 kts 244°
2026-05-05 10:28 51.47713 17.52089 33837 ft 397 kts 244°
2026-05-05 10:29 51.45293 17.44110 33838 ft 397 kts 244°
2026-05-05 10:29 51.42884 17.36195 33835 ft 397 kts 244°
2026-05-05 10:30 51.40440 17.28192 33841 ft 397 kts 244°
2026-05-05 10:30 51.38025 17.20308 33833 ft 397 kts 244°
2026-05-05 10:31 51.35588 17.12375 33836 ft 397 kts 244°
2026-05-05 10:31 51.33142 17.04443 33832 ft 397 kts 244°
2026-05-05 10:32 51.30690 16.96518 33831 ft 397 kts 244°
2026-05-05 10:32 51.28229 16.88591 33829 ft 397 kts 244°
2026-05-05 10:33 51.25784 16.80735 33830 ft 397 kts 244°
2026-05-05 10:33 51.23319 16.72844 33832 ft 398 kts 244°
2026-05-05 10:34 51.20842 16.64940 33831 ft 398 kts 244°
2026-05-05 10:34 51.18363 16.57054 33833 ft 398 kts 244°
2026-05-05 10:35 51.15869 16.49148 33834 ft 398 kts 244°
2026-05-05 10:35 51.13390 16.41313 33837 ft 398 kts 244°
2026-05-05 10:36 51.10895 16.33451 33839 ft 398 kts 244°
2026-05-05 10:36 51.08390 16.25585 33841 ft 398 kts 244°
2026-05-05 10:37 51.05884 16.17739 33844 ft 398 kts 244°
2026-05-05 10:37 51.03371 16.09898 33846 ft 398 kts 243°
2026-05-05 10:38 51.00855 16.02071 33843 ft 397 kts 243°
2026-05-05 10:38 50.98338 15.94269 33845 ft 397 kts 243°
2026-05-05 10:39 50.95815 15.86469 33844 ft 396 kts 243°
2026-05-05 10:39 50.93288 15.78684 33848 ft 397 kts 243°
2026-05-05 10:40 50.90759 15.70914 33842 ft 396 kts 243°
2026-05-05 10:40 50.88244 15.63214 33847 ft 396 kts 243°
2026-05-05 10:41 50.85708 15.55463 33847 ft 396 kts 243°
2026-05-05 10:41 50.83167 15.47721 33844 ft 396 kts 243°
2026-05-05 10:42 50.79211 15.36270 33829 ft 396 kts 231°
2026-05-05 10:43 50.75494 15.29823 33838 ft 397 kts 229°
2026-05-05 10:43 50.71764 15.23388 33835 ft 397 kts 229°
2026-05-05 10:44 50.68016 15.16975 33843 ft 397 kts 229°
2026-05-05 10:44 50.64289 15.10617 33839 ft 397 kts 229°
2026-05-05 10:45 50.60534 15.04229 33838 ft 396 kts 229°
2026-05-05 10:45 50.56782 14.97863 33844 ft 396 kts 229°
2026-05-05 10:46 50.53052 14.91548 33837 ft 396 kts 229°
2026-05-05 10:46 50.49296 14.85207 33839 ft 396 kts 228°
2026-05-05 10:47 50.46173 14.79945 33836 ft 396 kts 228°
2026-05-05 10:47 50.42413 14.73625 33834 ft 395 kts 228°
2026-05-05 10:48 50.38047 14.66307 33831 ft 395 kts 228°
2026-05-05 10:48 50.34898 14.61040 33830 ft 395 kts 228°
2026-05-05 10:49 50.31135 14.54763 33828 ft 395 kts 228°
2026-05-05 10:49 50.27400 14.48548 33827 ft 395 kts 228°
2026-05-05 10:50 50.23612 14.42258 33829 ft 395 kts 227°
2026-05-05 10:50 50.19866 14.36056 33826 ft 395 kts 227°
2026-05-05 10:51 50.16094 14.29825 33829 ft 395 kts 227°
2026-05-05 10:51 50.12321 14.23609 33829 ft 395 kts 227°
2026-05-05 10:52 50.08543 14.17398 33826 ft 395 kts 227°
2026-05-05 10:52 50.04762 14.11197 33830 ft 395 kts 227°
2026-05-05 10:53 50.00975 14.05002 33830 ft 395 kts 227°
2026-05-05 10:53 49.97190 13.98827 33821 ft 394 kts 227°
2026-05-05 10:54 49.93401 13.92659 33818 ft 395 kts 227°
2026-05-05 10:54 49.89619 13.86518 33772 ft 387 kts 227°
2026-05-05 10:54 49.87802 13.83572 33521 ft 378 kts 227°
2026-05-05 10:55 49.86002 13.80658 33271 ft 371 kts 227°
2026-05-05 10:55 49.84221 13.77779 33022 ft 369 kts 227°
2026-05-05 10:55 49.82448 13.74914 32771 ft 368 kts 227°
2026-05-05 10:55 49.80680 13.72061 32519 ft 367 kts 227°
2026-05-05 10:56 49.78910 13.69208 32277 ft 366 kts 227°
2026-05-05 10:56 49.77149 13.66373 32013 ft 364 kts 227°
2026-05-05 10:56 49.75395 13.63551 31779 ft 364 kts 227°
2026-05-05 10:56 49.73662 13.60766 31543 ft 363 kts 227°
2026-05-05 10:57 49.71910 13.57957 31299 ft 361 kts 227°
2026-05-05 10:57 49.70168 13.55166 30830 ft 360 kts 226°
2026-05-05 10:57 49.68449 13.52413 30661 ft 351 kts 226°
2026-05-05 10:57 49.66781 13.49746 30544 ft 340 kts 226°
2026-05-05 10:58 49.65147 13.47135 30412 ft 340 kts 226°
2026-05-05 10:58 49.63475 13.44462 30295 ft 351 kts 226°
2026-05-05 10:58 49.61763 13.41735 30190 ft 357 kts 226°
2026-05-05 10:58 49.60032 13.38978 30053 ft 358 kts 226°
2026-05-05 10:59 49.58298 13.36217 29957 ft 358 kts 226°
2026-05-05 10:59 49.56564 13.33459 29835 ft 358 kts 226°
2026-05-05 10:59 49.54831 13.30707 29528 ft 357 kts 226°
2026-05-05 10:59 49.53110 13.27976 29115 ft 354 kts 226°
2026-05-05 11:00 49.51396 13.25259 28708 ft 351 kts 226°
2026-05-05 11:00 49.49583 13.22781 28265 ft 349 kts 212°
2026-05-05 11:00 49.47404 13.21303 27917 ft 346 kts 201°
2026-05-05 11:00 49.45166 13.20007 27575 ft 342 kts 202°
2026-05-05 11:01 49.42945 13.18724 27211 ft 339 kts 201°
2026-05-05 11:01 49.40738 13.17473 26837 ft 337 kts 201°
2026-05-05 11:01 49.38544 13.16244 26495 ft 334 kts 201°
2026-05-05 11:01 49.36389 13.15046 26428 ft 321 kts 201°
2026-05-05 11:02 49.34357 13.13921 26771 ft 305 kts 201°
2026-05-05 11:02 49.32388 13.12665 27033 ft 308 kts 208°
2026-05-05 11:02 49.30452 13.11177 27328 ft 314 kts 207°
2026-05-05 11:02 49.28465 13.09699 27620 ft 320 kts 207°
2026-05-05 11:03 49.26431 13.08201 27658 ft 333 kts 206°
2026-05-05 11:03 49.24311 13.06651 26819 ft 339 kts 206°
2026-05-05 11:03 49.22207 13.05119 26135 ft 338 kts 206°
2026-05-05 11:03 49.20090 13.03575 25465 ft 337 kts 206°
2026-05-05 11:04 49.17976 13.02033 24807 ft 336 kts 206°
2026-05-05 11:04 49.15873 13.00502 24175 ft 334 kts 205°
2026-05-05 11:04 49.13759 12.98965 23534 ft 341 kts 205°
2026-05-05 11:04 49.11587 12.97387 22778 ft 350 kts 205°
2026-05-05 11:05 49.09366 12.95769 21993 ft 358 kts 205°
2026-05-05 11:05 49.07097 12.94118 21210 ft 361 kts 205°
2026-05-05 11:05 49.04842 12.92479 20487 ft 356 kts 205°
2026-05-05 11:05 49.02613 12.90861 19777 ft 352 kts 205°
2026-05-05 11:06 49.00413 12.89264 19106 ft 348 kts 205°
2026-05-05 11:06 48.98239 12.87689 18447 ft 344 kts 205°
2026-05-05 11:06 48.96090 12.86136 17768 ft 340 kts 205°
2026-05-05 11:06 48.93963 12.84607 17054 ft 336 kts 205°
2026-05-05 11:07 48.91884 12.83110 16370 ft 333 kts 205°
2026-05-05 11:07 48.89805 12.81616 15700 ft 329 kts 205°
2026-05-05 11:07 48.87741 12.80135 15122 ft 325 kts 205°
2026-05-05 11:07 48.85725 12.78688 14682 ft 316 kts 205°
2026-05-05 11:08 48.83749 12.77272 14321 ft 312 kts 205°
2026-05-05 11:08 48.81783 12.75864 13953 ft 312 kts 205°
2026-05-05 11:08 48.79822 12.74461 13626 ft 311 kts 205°
2026-05-05 11:08 48.77869 12.73067 13243 ft 309 kts 205°
2026-05-05 11:09 48.75928 12.71679 12901 ft 308 kts 205°
2026-05-05 11:09 48.73997 12.70302 12576 ft 306 kts 205°
2026-05-05 11:09 48.72075 12.68931 12242 ft 303 kts 205°
2026-05-05 11:09 48.70191 12.67586 11897 ft 302 kts 205°
2026-05-05 11:10 48.68296 12.66228 11573 ft 301 kts 205°
2026-05-05 11:10 48.66404 12.64875 11225 ft 301 kts 205°
2026-05-05 11:10 48.64503 12.63521 10889 ft 303 kts 205°
2026-05-05 11:10 48.62623 12.62086 10540 ft 304 kts 213°
2026-05-05 11:11 48.61142 12.59779 10303 ft 306 kts 233°
2026-05-05 11:11 48.59923 12.57183 10174 ft 300 kts 232°
2026-05-05 11:11 48.58723 12.54641 10012 ft 294 kts 233°
2026-05-05 11:11 48.57546 12.52129 9733 ft 292 kts 233°
2026-05-05 11:12 48.56362 12.49626 9415 ft 294 kts 233°
2026-05-05 11:12 48.55180 12.47100 9081 ft 295 kts 233°
2026-05-05 11:12 48.54011 12.44603 8745 ft 294 kts 233°
2026-05-05 11:12 48.52832 12.42089 8491 ft 293 kts 233°
2026-05-05 11:13 48.51642 12.39558 8128 ft 296 kts 234°
2026-05-05 11:13 48.50450 12.37022 7772 ft 295 kts 233°
2026-05-05 11:13 48.49278 12.34525 7423 ft 287 kts 233°
2026-05-05 11:13 48.48143 12.32110 7150 ft 278 kts 233°
2026-05-05 11:14 48.47024 12.29743 6905 ft 278 kts 233°
2026-05-05 11:14 48.45892 12.27346 6565 ft 282 kts 233°
2026-05-05 11:14 48.44752 12.24933 6248 ft 283 kts 234°
2026-05-05 11:14 48.43619 12.22532 6081 ft 279 kts 233°
2026-05-05 11:15 48.42503 12.20182 5927 ft 274 kts 233°
2026-05-05 11:15 48.41409 12.17864 5760 ft 269 kts 233°
2026-05-05 11:15 48.40334 12.15594 5644 ft 263 kts 233°
2026-05-05 11:15 48.39275 12.13376 5486 ft 259 kts 234°
2026-05-05 11:16 48.38228 12.11169 5285 ft 256 kts 234°
2026-05-05 11:16 48.37238 12.09062 5238 ft 242 kts 233°
2026-05-05 11:16 48.36451 12.06891 4898 ft 237 kts 258°
2026-05-05 11:16 48.36310 12.04471 4639 ft 228 kts 263°
2026-05-05 11:17 48.36135 12.02130 4349 ft 225 kts 263°
2026-05-05 11:17 48.35974 11.99790 4031 ft 223 kts 263°
2026-05-05 11:17 48.35796 11.97522 3758 ft 215 kts 263°
2026-05-05 11:17 48.35623 11.95330 3462 ft 207 kts 263°
2026-05-05 11:18 48.35467 11.93281 3205 ft 186 kts 263°
2026-05-05 11:18 48.35326 11.91452 2964 ft 168 kts 263°
2026-05-05 11:18 48.35199 11.89786 2781 ft 155 kts 263°
2026-05-05 11:18 48.35077 11.88203 2556 ft 150 kts 263°
2026-05-05 11:19 48.34956 11.86656 2350 ft 149 kts 264°
2026-05-05 11:19 48.34838 11.85115 2145 ft 148 kts 264°
2026-05-05 11:19 48.34720 11.83586 1932 ft 146 kts 263°
2026-05-05 11:19 48.34611 11.82115 1724 ft 138 kts 264°
2026-05-05 11:20 48.34495 11.80666 1560 ft 141 kts 264°
2026-05-05 11:20 48.34388 11.79284 1488 ft 115 kts 264°
2026-05-05 11:20 48.34325 11.78438 1488 ft 49 kts 263°
2026-05-05 11:20 48.34308 11.78170 1488 ft 18 kts 270°
2026-05-05 11:21 48.34323 11.77989 1481 ft 15 kts 284°
2026-05-05 11:21 48.34359 11.77845 1482 ft 13 kts 293°
2026-05-05 11:21 48.34392 11.77729 1488 ft 13 kts 293°
2026-05-05 11:21 48.34412 11.77658 1479 ft 0 kts 293°
2026-05-05 11:22 48.34417 11.77642 1482 ft 3 kts 293°
2026-05-05 11:23 48.34432 11.77588 1484 ft 8 kts 293°
2026-05-05 11:23 48.34461 11.77510 1475 ft 9 kts 319°
2026-05-05 11:23 48.34517 11.77517 1481 ft 9 kts 49°
2026-05-05 11:23 48.34533 11.77607 1488 ft 10 kts 82°
2026-05-05 11:24 48.34541 11.77705 1485 ft 10 kts 83°
2026-05-05 11:24 48.34549 11.77819 1481 ft 12 kts 83°
2026-05-05 11:24 48.34560 11.77958 1488 ft 15 kts 83°
2026-05-05 11:24 48.34572 11.78118 1488 ft 17 kts 83°
2026-05-05 11:25 48.34586 11.78305 1480 ft 19 kts 83°
2026-05-05 11:25 48.34602 11.78515 1488 ft 21 kts 83°
2026-05-05 11:25 48.34620 11.78739 1481 ft 20 kts 83°
2026-05-05 11:25 48.34636 11.78954 1482 ft 22 kts 83°
2026-05-05 11:26 48.34654 11.79181 1477 ft 17 kts 83°
2026-05-05 11:26 48.34666 11.79346 1488 ft 13 kts 83°
2026-05-05 11:26 48.34677 11.79486 1488 ft 13 kts 83°
2026-05-05 11:26 48.34688 11.79633 1488 ft 13 kts 83°
2026-05-05 11:27 48.34737 11.79713 1488 ft 12 kts
2026-05-05 11:27 48.34825 11.79699 1488 ft 13 kts 353°
2026-05-05 11:27 48.34910 11.79684 1483 ft 12 kts 353°
2026-05-05 11:27 48.34992 11.79670 1481 ft 12 kts 353°
2026-05-05 11:28 48.35077 11.79655 1485 ft 13 kts 353°
2026-05-05 11:28 48.35134 11.79645 1488 ft 7 kts 353°
2026-05-05 11:28 48.35179 11.79639 1484 ft 7 kts
2026-05-05 11:28 48.35201 11.79694 1479 ft 6 kts 81°
2026-05-05 11:29 48.35207 11.79764 1488 ft 5 kts 83°
2026-05-05 11:29 48.35209 11.79797 1488 ft 0 kts 83°
2026-05-05 11:29 48.35210 11.79799 1488 ft 0 kts 83°